Location: Escondido Hill
(38.9119°N, 104.7815°W)
Time: 15:36:58
(UTC-06:00)

ISS - Visible Passes

Search period start: 21 August 2018 00:00
Search period end: 31 August 2018 00:00
Orbit: 401 x 409 km, 51.6° (Epoch: 22 August)

Date Brightness Start Highest point End Pass type
(mag) Time Alt. Az. Time Alt. Az. Time Alt. Az.
26 Aug -1.1 05:55:56 10° SSE 05:57:54 15° SE 05:59:51 10° E visible
28 Aug -2.6 05:47:02 10° SSW 05:50:04 38° SE 05:53:08 10° ENE visible
29 Aug -1.6 04:56:29 14° S 04:58:10 19° SE 05:00:35 10° E visible
30 Aug -3.9 05:39:33 13° SW 05:42:21 78° NW 05:45:37 10° NE visible
